CTV412 WIII-WIOO

Flight info

Callsign CTV412
Flight time 1h 13m
Altitude 33000
Route ABASA W14 LAKUN
Aircraft A320/M-SDE3FGHIRWY/LB1

Departure

Time 2026-04-25 10:49
Airport Soekarno-Hatta International Airport (WIII)

Arrival

Time 2026-04-25 12:02
Airport Supadio International Airport (WIOO)
Time Latitude Longitude Altitude Speed Heading
2026-04-25 10:31 -6.13234 106.65333 48 ft 0 kts 323°
2026-04-25 10:38 -6.13243 106.65340 48 ft 2 kts 323°
2026-04-25 10:39 -6.13255 106.65349 48 ft 2 kts 323°
2026-04-25 10:39 -6.13264 106.65355 48 ft 1 kts 323°
2026-04-25 10:39 -6.13274 106.65366 48 ft 2 kts 300°
2026-04-25 10:39 -6.13280 106.65379 48 ft 2 kts 281°
2026-04-25 10:40 -6.13281 106.65395 48 ft 2 kts 259°
2026-04-25 10:40 -6.13279 106.65403 48 ft 1 kts 247°
2026-04-25 10:40 -6.13277 106.65408 48 ft 0 kts 247°
2026-04-25 10:43 -6.13284 106.65389 48 ft 7 kts 249°
2026-04-25 10:43 -6.13310 106.65321 48 ft 11 kts 248°
2026-04-25 10:43 -6.13339 106.65250 48 ft 8 kts 244°
2026-04-25 10:44 -6.13379 106.65215 48 ft 8 kts 186°
2026-04-25 10:44 -6.13431 106.65232 47 ft 9 kts 156°
2026-04-25 10:44 -6.13501 106.65262 48 ft 12 kts 156°
2026-04-25 10:44 -6.13593 106.65299 48 ft 15 kts 158°
2026-04-25 10:45 -6.13685 106.65304 48 ft 14 kts 223°
2026-04-25 10:45 -6.13724 106.65211 48 ft 14 kts 249°
2026-04-25 10:45 -6.13765 106.65110 47 ft 16 kts 248°
2026-04-25 10:45 -6.13809 106.65000 48 ft 17 kts 248°
2026-04-25 10:46 -6.13856 106.64880 48 ft 18 kts 248°
2026-04-25 10:46 -6.13905 106.64756 48 ft 19 kts 248°
2026-04-25 10:46 -6.13957 106.64625 48 ft 20 kts 248°
2026-04-25 10:46 -6.14011 106.64490 48 ft 21 kts 248°
2026-04-25 10:47 -6.14066 106.64354 48 ft 17 kts 247°
2026-04-25 10:47 -6.14153 106.64294 48 ft 16 kts 165°
2026-04-25 10:47 -6.14215 106.64365 48 ft 10 kts 121°
2026-04-25 10:47 -6.14233 106.64418 48 ft 7 kts 69°
2026-04-25 10:48 -6.14188 106.64528 48 ft 44 kts 68°
2026-04-25 10:48 -6.13983 106.65042 48 ft 110 kts 68°
2026-04-25 10:48 -6.13626 106.65939 52 ft 163 kts 66°
2026-04-25 10:48 -6.13189 106.67050 432 ft 175 kts 67°
2026-04-25 10:49 -6.12736 106.68205 1027 ft 181 kts 66°
2026-04-25 10:49 -6.12245 106.69424 1483 ft 198 kts 66°
2026-04-25 10:49 -6.11709 106.70748 1870 ft 215 kts 67°
2026-04-25 10:49 -6.11119 106.72208 2203 ft 236 kts 68°
2026-04-25 10:50 -6.10647 106.73845 2619 ft 253 kts 79°
2026-04-25 10:50 -6.10493 106.75650 3311 ft 260 kts 87°
2026-04-25 10:50 -6.10434 106.77453 4133 ft 260 kts 83°
2026-04-25 10:50 -6.09898 106.79150 4898 ft 263 kts 58°
2026-04-25 10:51 -6.08609 106.80452 5702 ft 268 kts 32°
2026-04-25 10:51 -6.06910 106.81228 6517 ft 272 kts 24°
2026-04-25 10:51 -6.05147 106.81927 7281 ft 276 kts 24°
2026-04-25 10:51 -6.03356 106.82631 7924 ft 285 kts 23°
2026-04-25 10:52 -6.01506 106.83363 8721 ft 289 kts 23°
2026-04-25 10:52 -5.99635 106.84106 9537 ft 292 kts 24°
2026-04-25 10:52 -5.97735 106.84864 10332 ft 295 kts 23°
2026-04-25 10:52 -5.95831 106.85626 11091 ft 299 kts 23°
2026-04-25 10:53 -5.93852 106.86420 11620 ft 312 kts 23°
2026-04-25 10:53 -5.91798 106.87245 11958 ft 330 kts 23°
2026-04-25 10:53 -5.89621 106.88118 12413 ft 343 kts 23°
2026-04-25 10:53 -5.87392 106.89007 13133 ft 348 kts 22°
2026-04-25 10:54 -5.85116 106.89912 13893 ft 350 kts 23°
2026-04-25 10:54 -5.83619 106.90509 14377 ft 353 kts 23°
2026-04-25 10:54 -5.80583 106.91723 15317 ft 357 kts 23°
2026-04-25 10:54 -5.78255 106.92655 16011 ft 361 kts 23°
2026-04-25 10:55 -5.75928 106.93587 16689 ft 364 kts 23°
2026-04-25 10:55 -5.73580 106.94529 17367 ft 368 kts 23°
2026-04-25 10:55 -5.71206 106.95481 18026 ft 371 kts 23°
2026-04-25 10:55 -5.68788 106.96452 18666 ft 374 kts 23°
2026-04-25 10:56 -5.66357 106.97427 19287 ft 378 kts 23°
2026-04-25 10:56 -5.63915 106.98407 19890 ft 381 kts 23°
2026-04-25 10:56 -5.61456 106.99393 20468 ft 385 kts 23°
2026-04-25 10:56 -5.58983 107.00385 21038 ft 388 kts 23°
2026-04-25 10:57 -5.56467 107.01394 21601 ft 392 kts 23°
2026-04-25 10:57 -5.53906 107.02421 22160 ft 395 kts 23°
2026-04-25 10:57 -5.51346 107.03448 22698 ft 398 kts 23°
2026-04-25 10:57 -5.48782 107.04476 23206 ft 401 kts 22°
2026-04-25 10:58 -5.46171 107.05523 23714 ft 405 kts 22°
2026-04-25 10:58 -5.43559 107.06570 24206 ft 408 kts 22°
2026-04-25 10:58 -5.40924 107.07625 24675 ft 411 kts 23°
2026-04-25 10:58 -5.38280 107.08684 25116 ft 414 kts 23°
2026-04-25 10:59 -5.35596 107.09759 25542 ft 418 kts 23°
2026-04-25 10:59 -5.32909 107.10836 25952 ft 421 kts 23°
2026-04-25 10:59 -5.30176 107.11931 26354 ft 424 kts 23°
2026-04-25 10:59 -5.27421 107.13035 26744 ft 428 kts 23°
2026-04-25 11:00 -5.24656 107.14143 27120 ft 431 kts 23°
2026-04-25 11:00 -5.21868 107.15260 27494 ft 434 kts 23°
2026-04-25 11:00 -5.19053 107.16387 27888 ft 436 kts 23°
2026-04-25 11:00 -5.16256 107.17508 28252 ft 439 kts 23°
2026-04-25 11:01 -5.13414 107.18647 28599 ft 441 kts 23°
2026-04-25 11:01 -5.10538 107.19797 29003 ft 442 kts 23°
2026-04-25 11:01 -5.07694 107.20937 29481 ft 441 kts 23°
2026-04-25 11:01 -5.04859 107.22071 29949 ft 441 kts 23°
2026-04-25 11:02 -5.02008 107.23212 30388 ft 440 kts 23°
2026-04-25 11:02 -4.99181 107.24344 30845 ft 439 kts 23°
2026-04-25 11:02 -4.96331 107.25424 31313 ft 438 kts 20°
2026-04-25 11:02 -4.93463 107.26331 31711 ft 438 kts 17°
2026-04-25 11:03 -4.90504 107.27078 32054 ft 439 kts 14°
2026-04-25 11:03 -4.87532 107.27743 32380 ft 440 kts 13°
2026-04-25 11:03 -4.84506 107.28406 32704 ft 441 kts 13°
2026-04-25 11:03 -4.81541 107.29057 32858 ft 442 kts 13°
2026-04-25 11:04 -4.78535 107.29718 32862 ft 442 kts 13°
2026-04-25 11:04 -4.72572 107.31037 32869 ft 442 kts 13°
2026-04-25 11:05 -4.66550 107.32373 32870 ft 442 kts 13°
2026-04-25 11:05 -4.60567 107.33702 32870 ft 442 kts 13°
2026-04-25 11:06 -4.54606 107.35027 32870 ft 442 kts 13°
2026-04-25 11:06 -4.48574 107.36366 32870 ft 442 kts 13°
2026-04-25 11:07 -4.42594 107.37695 32870 ft 442 kts 13°
2026-04-25 11:07 -4.36595 107.39027 32871 ft 442 kts 13°
2026-04-25 11:08 -4.30627 107.40353 32870 ft 441 kts 13°
2026-04-25 11:08 -4.24632 107.41684 32871 ft 441 kts 13°
2026-04-25 11:09 -4.18636 107.43015 32870 ft 442 kts 13°
2026-04-25 11:09 -4.12673 107.44339 32871 ft 442 kts 13°
2026-04-25 11:10 -4.06657 107.45674 32870 ft 442 kts 13°
2026-04-25 11:10 -4.00696 107.46997 32870 ft 442 kts 13°
2026-04-25 11:11 -3.94683 107.48332 32870 ft 442 kts 13°
2026-04-25 11:11 -3.88698 107.49659 32870 ft 442 kts 13°
2026-04-25 11:12 -3.82681 107.50987 32870 ft 442 kts 13°
2026-04-25 11:12 -3.76708 107.52311 32870 ft 442 kts 13°
2026-04-25 11:13 -3.70695 107.53643 32870 ft 442 kts 13°
2026-04-25 11:13 -3.64713 107.54959 32870 ft 442 kts 13°
2026-04-25 11:14 -3.58697 107.56284 32870 ft 442 kts 13°
2026-04-25 11:14 -3.52703 107.57606 32870 ft 442 kts 13°
2026-04-25 11:15 -3.46723 107.58926 32871 ft 442 kts 13°
2026-04-25 11:15 -3.40746 107.60246 32875 ft 442 kts 13°
2026-04-25 11:16 -3.31736 107.62234 32882 ft 443 kts 13°
2026-04-25 11:16 -3.25746 107.63555 32886 ft 443 kts 13°
2026-04-25 11:17 -3.19721 107.64886 32891 ft 443 kts 13°
2026-04-25 11:17 -3.13727 107.66229 32894 ft 443 kts 13°
2026-04-25 11:18 -3.07730 107.67570 32896 ft 443 kts 13°
2026-04-25 11:18 -3.01703 107.68903 32897 ft 443 kts 13°
2026-04-25 11:19 -2.95721 107.70222 32897 ft 443 kts 13°
2026-04-25 11:19 -2.89697 107.71546 32897 ft 443 kts 13°
2026-04-25 11:20 -2.83686 107.72863 32897 ft 444 kts 13°
2026-04-25 11:20 -2.77694 107.74314 32896 ft 443 kts 17°
2026-04-25 11:21 -2.71898 107.76380 32896 ft 443 kts 24°
2026-04-25 11:21 -2.66370 107.79100 32897 ft 443 kts 30°
2026-04-25 11:22 -2.62005 107.81731 32897 ft 443 kts 32°
2026-04-25 11:22 -2.55869 107.85509 32897 ft 443 kts 32°
2026-04-25 11:23 -2.50631 107.88727 32897 ft 443 kts 32°
2026-04-25 11:23 -2.45382 107.91947 32897 ft 444 kts 32°
2026-04-25 11:24 -2.40148 107.95157 32897 ft 444 kts 32°
2026-04-25 11:24 -2.34894 107.98378 32897 ft 444 kts 32°
2026-04-25 11:25 -2.29624 108.01608 32897 ft 444 kts 32°
2026-04-25 11:25 -2.24348 108.04841 32897 ft 444 kts 32°
2026-04-25 11:26 -2.19112 108.08049 32897 ft 444 kts 32°
2026-04-25 11:26 -2.13826 108.11290 32897 ft 444 kts 32°
2026-04-25 11:27 -2.08563 108.14517 32897 ft 444 kts 32°
2026-04-25 11:27 -2.04188 108.17200 32897 ft 444 kts 32°
2026-04-25 11:28 -1.98046 108.20974 32897 ft 444 kts 32°
2026-04-25 11:28 -1.92766 108.24216 32897 ft 444 kts 32°
2026-04-25 11:29 -1.87526 108.27426 32897 ft 444 kts 31°
2026-04-25 11:29 -1.82405 108.30550 32897 ft 444 kts 32°
2026-04-25 11:30 -1.77163 108.33757 32897 ft 444 kts 32°
2026-04-25 11:30 -1.71899 108.36983 32897 ft 444 kts 32°
2026-04-25 11:31 -1.66626 108.40216 32897 ft 444 kts 32°
2026-04-25 11:31 -1.61371 108.43439 32897 ft 443 kts 32°
2026-04-25 11:32 -1.56136 108.46648 32897 ft 443 kts 32°
2026-04-25 11:32 -1.51935 108.49226 32897 ft 443 kts 32°
2026-04-25 11:38 -1.51192 108.49682 32897 ft 443 kts 32°
2026-04-25 11:39 -1.48555 108.51298 32676 ft 443 kts 32°
2026-04-25 11:39 -1.45948 108.52896 32427 ft 441 kts 32°
2026-04-25 11:39 -1.43362 108.54481 32178 ft 438 kts 32°
2026-04-25 11:39 -1.40787 108.56059 31929 ft 435 kts 32°
2026-04-25 11:40 -1.38220 108.57633 31628 ft 434 kts 32°
2026-04-25 11:40 -1.35638 108.59216 31226 ft 434 kts 32°
2026-04-25 11:40 -1.33086 108.60780 30715 ft 434 kts 32°
2026-04-25 11:40 -1.30501 108.62365 30133 ft 434 kts 32°
2026-04-25 11:41 -1.27945 108.63931 29534 ft 434 kts 32°
2026-04-25 11:41 -1.25374 108.65509 28909 ft 434 kts 33°
2026-04-25 11:41 -1.22816 108.67090 28289 ft 433 kts 33°
2026-04-25 11:41 -1.20249 108.68677 27877 ft 427 kts 33°
2026-04-25 11:42 -1.17752 108.70217 27452 ft 422 kts 33°
2026-04-25 11:42 -1.15268 108.71744 27014 ft 418 kts 33°
2026-04-25 11:42 -1.12817 108.73248 26578 ft 414 kts 33°
2026-04-25 11:42 -1.10382 108.74741 26153 ft 410 kts 33°
2026-04-25 11:43 -1.07934 108.76242 25693 ft 406 kts 33°
2026-04-25 11:43 -1.05559 108.77698 25244 ft 403 kts 33°
2026-04-25 11:43 -1.03191 108.79148 24805 ft 400 kts 33°
2026-04-25 11:43 -1.00831 108.80593 24362 ft 397 kts 33°
2026-04-25 11:44 -0.98476 108.82034 23924 ft 394 kts 33°
2026-04-25 11:44 -0.96162 108.83452 23488 ft 391 kts 33°
2026-04-25 11:44 -0.93867 108.84857 23053 ft 388 kts 33°
2026-04-25 11:44 -0.91587 108.86255 22620 ft 385 kts 33°
2026-04-25 11:45 -0.89290 108.87616 22189 ft 383 kts 31°
2026-04-25 11:45 -0.86933 108.88815 21763 ft 381 kts 27°
2026-04-25 11:45 -0.84478 108.89861 21330 ft 379 kts 23°
2026-04-25 11:45 -0.82053 108.90767 20907 ft 376 kts 22°
2026-04-25 11:46 -0.79592 108.91672 20473 ft 373 kts 22°
2026-04-25 11:46 -0.77161 108.92564 20045 ft 370 kts 22°
2026-04-25 11:46 -0.74775 108.93439 19628 ft 367 kts 22°
2026-04-25 11:46 -0.72392 108.94318 19204 ft 365 kts 22°
2026-04-25 11:47 -0.70024 108.95190 18775 ft 362 kts 22°
2026-04-25 11:47 -0.67658 108.96062 18349 ft 359 kts 22°
2026-04-25 11:47 -0.65328 108.96921 17932 ft 356 kts 22°
2026-04-25 11:47 -0.63035 108.97767 17513 ft 354 kts 22°
2026-04-25 11:48 -0.60720 108.98621 17070 ft 352 kts 22°
2026-04-25 11:48 -0.58450 108.99459 16634 ft 350 kts 22°
2026-04-25 11:48 -0.56185 109.00295 16193 ft 348 kts 22°
2026-04-25 11:48 -0.53910 109.01135 15756 ft 346 kts 22°
2026-04-25 11:49 -0.51663 109.01964 15318 ft 344 kts 22°
2026-04-25 11:49 -0.49430 109.02787 14890 ft 342 kts 22°
2026-04-25 11:49 -0.47188 109.03615 14454 ft 340 kts 22°
2026-04-25 11:49 -0.44981 109.04429 14029 ft 338 kts 22°
2026-04-25 11:50 -0.42770 109.05244 13599 ft 337 kts 22°
2026-04-25 11:50 -0.40601 109.06044 13182 ft 335 kts 22°
2026-04-25 11:50 -0.38414 109.06851 12755 ft 333 kts 22°
2026-04-25 11:50 -0.36241 109.07652 12337 ft 331 kts 22°
2026-04-25 11:51 -0.34091 109.08445 11916 ft 330 kts 22°
2026-04-25 11:51 -0.31958 109.09232 11504 ft 328 kts 21°
2026-04-25 11:51 -0.29830 109.10017 11166 ft 323 kts 21°
2026-04-25 11:51 -0.27768 109.10777 11099 ft 308 kts 21°
2026-04-25 11:52 -0.25798 109.11502 11032 ft 295 kts 21°
2026-04-25 11:52 -0.23910 109.12197 10972 ft 282 kts 21°
2026-04-25 11:52 -0.22047 109.12792 10606 ft 284 kts 16°
2026-04-25 11:52 -0.20110 109.13213 10193 ft 286 kts 11°
2026-04-25 11:53 -0.18149 109.13535 9783 ft 287 kts 10°
2026-04-25 11:53 -0.16191 109.13842 9378 ft 286 kts 10°
2026-04-25 11:53 -0.14222 109.14151 8972 ft 286 kts 10°
2026-04-25 11:53 -0.12268 109.14459 8572 ft 285 kts 10°
2026-04-25 11:54 -0.10295 109.14773 8173 ft 284 kts
2026-04-25 11:54 -0.08368 109.15080 7782 ft 283 kts
2026-04-25 11:54 -0.04502 109.15698 7007 ft 280 kts
2026-04-25 11:55 -0.02574 109.16007 6622 ft 279 kts
2026-04-25 11:55 -0.00744 109.16560 6183 ft 278 kts 33°
2026-04-25 11:55 0.00547 109.17969 5782 ft 275 kts 64°
2026-04-25 11:55 0.01241 109.19705 5429 ft 263 kts 69°
2026-04-25 11:56 0.01863 109.21374 5084 ft 255 kts 68°
2026-04-25 11:56 0.02482 109.22988 4736 ft 246 kts 68°
2026-04-25 11:56 0.03107 109.24580 4372 ft 239 kts 68°
2026-04-25 11:56 0.03666 109.25985 4006 ft 231 kts 67°
2026-04-25 11:57 0.04220 109.27373 3743 ft 219 kts 67°
2026-04-25 11:57 0.04774 109.28756 3478 ft 208 kts 67°
2026-04-25 11:57 0.05142 109.30113 3180 ft 205 kts 88°
2026-04-25 11:57 0.04857 109.31499 2888 ft 207 kts 120°
2026-04-25 11:58 0.03989 109.32458 2732 ft 208 kts 145°
2026-04-25 11:58 0.02751 109.33153 2634 ft 202 kts 155°
2026-04-25 11:58 0.01493 109.33670 2522 ft 189 kts 159°
2026-04-25 11:58 0.00319 109.34122 2483 ft 171 kts 159°
2026-04-25 11:59 -0.00761 109.34544 2505 ft 164 kts 159°
2026-04-25 11:59 -0.01822 109.34972 2509 ft 164 kts 158°
2026-04-25 11:59 -0.02882 109.35405 2371 ft 163 kts 158°
2026-04-25 12:00 -0.04944 109.36253 1959 ft 160 kts 158°
2026-04-25 12:00 -0.05976 109.36677 1743 ft 159 kts 158°
2026-04-25 12:00 -0.08011 109.37509 1323 ft 157 kts 159°
2026-04-25 12:01 -0.09023 109.37923 1113 ft 156 kts 159°
2026-04-25 12:01 -0.10015 109.38327 909 ft 155 kts 159°
2026-04-25 12:01 -0.11031 109.38741 702 ft 155 kts 159°
2026-04-25 12:01 -0.12029 109.39152 476 ft 155 kts 159°
2026-04-25 12:02 -0.13996 109.39959 77 ft 153 kts 160°
2026-04-25 12:02 -0.14950 109.40340 18 ft 124 kts 160°
2026-04-25 12:02 -0.15473 109.40550 18 ft 42 kts 158°
2026-04-25 12:03 -0.15608 109.40617 18 ft 10 kts 136°
2026-04-25 12:03 -0.15624 109.40617 18 ft 2 kts 244°
2026-04-25 12:03 -0.15615 109.40602 18 ft 3 kts 326°
2026-04-25 12:03 -0.15580 109.40590 18 ft 7 kts 343°
2026-04-25 12:04 -0.15522 109.40570 18 ft 10 kts 340°
2026-04-25 12:04 -0.15441 109.40538 18 ft 14 kts 338°
2026-04-25 12:04 -0.15358 109.40504 18 ft 13 kts 337°
2026-04-25 12:04 -0.15257 109.40462 18 ft 18 kts 338°
2026-04-25 12:05 -0.15121 109.40407 18 ft 23 kts 338°
2026-04-25 12:05 -0.14973 109.40347 18 ft 19 kts 338°
2026-04-25 12:05 -0.14874 109.40317 18 ft 9 kts 21°
2026-04-25 12:05 -0.14847 109.40357 18 ft 4 kts 70°
2026-04-25 12:06 -0.14831 109.40379 18 ft 2 kts 15°
2026-04-25 12:06 -0.14808 109.40375 18 ft 2 kts 342°
2026-04-25 12:06 -0.14794 109.40377 18 ft 2 kts 42°
2026-04-25 12:06 -0.14785 109.40397 18 ft 3 kts 68°
2026-04-25 12:07 -0.14780 109.40410 18 ft 0 kts 68°